FW1247 Weather Reports


time (UTC)temp
C
wind
direction
speed
KPH
gust
KPH
rain 1hr
cm
rain 24hr
cm
rain mn
cm
humidity
%
barometer
mb
20260903194519 17 216 4.8 14.5 0.00 1.09 1.09 93 1005.8
20260903193011 17 249 9.7 19.3 0.00 1.09 1.09 92 1005.9
20260903191512 17 286 12.9 24.1 0.03 1.09 1.09 93 1005.9
20260903190009 17 295 12.9 24.1 0.03 1.09 1.09 93 1005.9
20260903184509 17 281 6.4 27.4 0.03 1.09 1.09 93 1005.8
20260903183009 17 254 17.7 33.8 0.25 1.09 1.09 93 1005.6
20260903181507 18 280 11.3 24.1 0.33 1.07 1.07 94 1005.4
20260903180006 18 219 11.3 20.9 0.38 1.07 1.07 94 1005.1
20260903174506 18 279 14.5 32.2 0.38 1.07 1.07 93 1005.0
20260903173105 18 230 12.9 32.2 0.15 0.81 0.81 91 1005.1
20260903171504 19 205 11.3 33.8 0.05 0.71 0.71 90 1005.0
20260903170009 20 244 14.5 24.1 0.00 0.69 0.69 88 1004.9
20260903164503 20 194 14.5 27.4 0.00 0.69 0.69 88 1004.8
20260903163001 20 221 17.7 27.4 0.00 0.69 0.69 88 1004.8
20260903161501 20 190 12.9 22.5 0.00 0.69 0.69 89 1004.8
20260903160002 20 183 9.7 25.7 0.00 0.69 0.69 89 1004.8
20260903154603 20 205 12.9 32.2 0.00 0.69 0.69 89 1004.8
20260903153058 20 242 19.3 37.0 0.00 0.69 0.69 88 1004.8
20260903151557 20 194 16.1 32.2 0.00 0.69 0.69 88 1005.1
20260903150058 20 218 17.7 37.0 0.00 0.69 0.69 89 1005.0
20260903144554 20 196 16.1 37.0 0.00 0.69 0.69 90 1005.1
20260903143106 19 160 14.5 27.4 0.00 0.69 0.69 91 1005.2
20260903141551 19 219 14.5 32.2 0.00 0.69 0.69 91 1005.3
20260903140051 19 229 19.3 43.5 0.00 0.69 0.69 90 1005.3
20260903134549 20 201 19.3 32.2 0.00 0.69 0.69 91 1005.1
20260903133046 19 176 11.3 30.6 0.00 0.69 0.69 93 1005.1
20260903131604 18 186 14.5 38.6 0.00 0.69 0.69 93 1005.2
20260903130044 18 221 16.1 29.0 0.00 0.69 0.69 95 1005.2
20260903124540 18 200 14.5 29.0 0.00 0.69 0.69 95 1005.4
20260903123041 17 202 14.5 30.6 0.00 0.69 0.69 95 1005.3
20260903121536 17 189 11.3 27.4 0.03 0.69 0.69 96 1005.3
20260903120032 17 171 12.9 29.0 0.05 0.69 0.69 96 1005.4
20260903114530 17 191 6.4 16.1 0.05 0.69 0.69 96 1005.5
20260903113037 17 166 9.7 17.7 0.05 0.69 0.69 96 1005.9
20260903111525 17 209 11.3 20.9 0.05 0.66 0.66 96 1006.1
20260903110025 17 180 14.5 22.5 0.03 0.64 0.64 95 1006.1
20260903104522 16 185 12.9 22.5 0.03 0.64 0.64 96 1006.3
20260903103019 16 201 12.9 24.1 0.00 0.61 0.61 96 1006.5
20260903101522 16 184 14.5 24.1 0.05 0.61 0.61 96 1006.5
20260903100020 16 177 14.5 27.4 0.05 0.61 0.61 96 1006.6
20260903094514 16 192 17.7 29.0 0.05 0.61 0.61 95 1006.8
20260903093012 16 190 11.3 22.5 0.05 0.61 0.61 95 1007.1
20260903091516 16 167 16.1 29.0 0.00 0.56 0.56 94 1007.2
20260903090005 16 182 12.9 30.6 0.00 0.56 0.56 95 1007.4
20260903084503 16 143 14.5 25.7 0.03 0.56 0.56 95 1007.5
20260903083000 16 200 11.3 20.9 0.03 0.56 0.56 96 1007.6
20260903081558 16 160 14.5 25.7 0.05 0.56 0.56 96 1007.8
20260903074555 16 208 9.7 24.1 0.20 0.53 0.53 96 1007.9
20260903073052 16 172 8.0 27.4 0.28 0.53 0.53 96 1008.1
20260903071549 15 156 9.7 19.3 0.36 0.51 0.51 95 1008.3
20260903070047 15 192 6.4 16.1 0.33 0.43 0.43 95 1008.5
20260903064544 15 164 8.0 19.3 0.23 0.33 0.33 95 1008.8
20260903063042 15 161 8.0 24.1 0.20 0.25 0.25 94 1008.9
20260903061550 15 196 4.8 14.5 0.08 0.15 0.15 93 1009.1
20260903060040 16 167 14.5 25.7 0.05 0.10 0.10 92 1009.3
20260903054533 16 178 12.9 29.0 0.05 0.10 0.10 92 1009.3
20260903053029 16 142 9.7 16.1 0.00 0.05 0.05 92 1009.5
20260903051529 16 165 4.8 12.9 0.00 0.05 0.05 93 1009.5
20260903050026 16 166 4.8 9.7 0.03 0.05 0.05 93 1009.6
20260903044528 16 190 6.4 9.7 0.05 0.05 0.05 93 1009.7
20260903043029 16 180 4.8 11.3 0.05 0.05 0.05 93 1009.8
20260903041522 16 184 4.8 12.9 0.05 0.05 0.05 93 1010.1
20260903040020 16 187 3.2 8.0 0.05 0.05 0.05 93 1010.2
20260903034527 16 180 3.2 9.7 0.03 0.03 0.03 93 1010.2
20260903033017 16 181 4.8 11.3 0.03 0.03 0.03 94 1010.3
20260903031516 16 192 4.8 11.3 0.00 0.00 0.00 94 1010.5
20260903030014 16 180 4.8 11.3 0.00 0.00 0.00 94 1010.6
20260903024513 16 165 4.8 11.3 0.00 0.00 0.00 94 1010.7
20260903023012 16 190 3.2 8.0 0.00 0.00 0.00 94 1010.8
20260903021513 16 202 3.2 8.0 0.00 0.00 0.00 94 1011.0
20260903020008 16 198 3.2 9.7 0.00 0.00 0.00 94 1011.2
20260903014505 16 208 4.8 6.4 0.00 0.00 0.00 94 1011.3
20260903013004 16 221 1.6 8.0 0.00 0.00 0.00 94 1011.4
20260903011503 16 225 6.4 11.3 0.00 0.00 0.00 94 1011.5
20260903010003 16 187 6.4 14.5 0.00 0.00 0.00 94 1011.6
20260903004502 16 186 4.8 9.7 0.00 0.03 0.00 93 1011.5
20260903003100 16 200 3.2 11.3 0.00 0.03 0.00 93 1011.7
20260903001600 16 205 1.6 8.0 0.00 0.03 0.00 93 1011.7
20260903000100 16 224 4.8 11.3 0.00 0.03 0.00 93 1011.6
20260902234606 16 212 6.4 14.5 0.00 0.03 0.00 93 1011.7
20260902233057 16 203 6.4 16.1 0.00 0.03 0.00 92 1011.8
20260902231600 16 227 6.4 11.3 0.00 0.03 0.00 92 1011.8
20260902230055 16 223 4.8 11.3 0.00 0.03 0.00 92 1011.8
20260902224554 16 234 1.6 8.0 0.00 0.03 0.00 92 1011.9
20260902223058 16 206 4.8 12.9 0.00 0.03 0.00 92 1012.0
20260902221552 16 215 4.8 14.5 0.00 0.03 0.00 92 1012.1
20260902220049 16 267 4.8 12.9 0.00 0.03 0.00 92 1012.1
20260902214548 16 236 3.2 11.3 0.00 0.03 0.03 93 1012.2
20260902213047 15 236 1.6 9.7 0.00 0.03 0.03 93 1012.2
20260902211550 15 232 1.6 9.7 0.00 0.03 0.03 93 1012.2
20260902210046 15 225 1.6 6.4 0.00 0.03 0.03 92 1012.1
20260902204546 15 300 0.0 4.8 0.00 0.03 0.03 92 1012.1
20260902203047 15 300 1.6 4.8 0.00 0.03 0.03 91 1012.2
20260902201552 16 300 0.0 3.2 0.00 0.03 0.03 91 1012.2
20260902200044 16 300 0.0 3.2 0.00 0.03 0.03 91 1012.4